When you browse on this site, cookies collect data to enhance your experience and personalize the content and advertising you see.
Visit our Privacy Policy to learn more. By continuing to use the site, you agree to this use of cookies and data.
  • In Portugal
  • List of Countries
  • For 7 days
  • Water Temperature
  • Satellite Maps
  • Weather Map
  • Weather Widgets
  • user-avatar
    Login

    Hourly Weather Manuylovo

    Today, 20 February, Wednesday

    Time Temperature Precipitation Wind Pressure Humidity
    00:00 -1°C° 0.1 mm 5 mps 730 mmHg 91%
    01:00 0°C° 0.1 mm 5 mps 729 mmHg 91%
    02:00 0°C° 0.1 mm 5 mps 729 mmHg 92%
    03:00 0°C° 0.2 mm 5 mps 729 mmHg 92%
    04:00 0°C° 0.2 mm 5 mps 728 mmHg 92%
    05:00 0°C° 0.2 mm 5 mps 728 mmHg 92%
    06:00 0°C° 0.1 mm 5 mps 728 mmHg 92%
    07:00 0°C° 0.1 mm 4 mps 728 mmHg 92%
    08:00 -1°C° 0.1 mm 4 mps 728 mmHg 92%
    09:00 0°C° 0.1 mm 5 mps 728 mmHg 91%
    10:00 0°C° 0.1 mm 5 mps 727 mmHg 89%
    11:00 0°C° 0.1 mm 5 mps 727 mmHg 88%
    12:00 0°C° 0.1 mm 5 mps 727 mmHg 87%
    13:00 0°C° 0.1 mm 5 mps 727 mmHg 87%
    14:00 0°C° 0.1 mm 5 mps 726 mmHg 87%
    15:00 0°C° 0.3 mm 5 mps 726 mmHg 87%
    16:00 0°C° 0.3 mm 5 mps 726 mmHg 88%
    17:00 0°C° 0.3 mm 5 mps 725 mmHg 88%
    18:00 -1°C° 0.5 mm 5 mps 725 mmHg 86%
    19:00 -1°C° 0.5 mm 5 mps 725 mmHg 83%
    20:00 -3°C° 0.5 mm 6 mps 725 mmHg 80%
    21:00 -4°C° 0.1 mm 5 mps 726 mmHg 82%
    22:00 -5°C° 0.1 mm 5 mps 726 mmHg 84%
    23:00 -5°C° 0.1 mm 4 mps 726 mmHg 86%

    Tomorrow, 21 February, Thursday

    Time Temperature Precipitation Wind Pressure Humidity
    00:00 -6°C° 0.2 mm 5 mps 727 mmHg 85%
    01:00 -6°C° 0.2 mm 5 mps 727 mmHg 84%
    02:00 -8°C° 0.2 mm 6 mps 728 mmHg 82%
    03:00 -8°C° 0.2 mm 6 mps 728 mmHg 81%
    04:00 -8°C° 0.2 mm 6 mps 728 mmHg 80%
    05:00 -8°C° 0.2 mm 6 mps 728 mmHg 78%
    06:00 -8°C° 0.1 mm 6 mps 729 mmHg 78%
    07:00 -9°C° 0.1 mm 6 mps 730 mmHg 79%
    08:00 -9°C° 0.1 mm 7 mps 730 mmHg 79%
    09:00 -9°C° 0.1 mm 7 mps 731 mmHg 78%
    10:00 -9°C° 0.1 mm 7 mps 732 mmHg 77%
    11:00 -9°C° 0.1 mm 7 mps 733 mmHg 75%
    12:00 -9°C° 0.1 mm 7 mps 734 mmHg 74%
    13:00 -9°C° 0.1 mm 7 mps 734 mmHg 73%
    14:00 -10°C° 0.1 mm 6 mps 735 mmHg 71%
    15:00 -10°C° 0.1 mm 6 mps 736 mmHg 72%
    16:00 -11°C° 0.1 mm 6 mps 737 mmHg 73%
    17:00 -12°C° 0.1 mm 6 mps 738 mmHg 74%
    18:00 -12°C° 0.1 mm 6 mps 738 mmHg 74%
    19:00 -14°C° 0.1 mm 6 mps 739 mmHg 74%
    20:00 -14°C° 0.1 mm 6 mps 740 mmHg 74%
    21:00 -13°C° 0 mm 5 mps 740 mmHg 73%
    22:00 -13°C° 0 mm 5 mps 741 mmHg 73%
    23:00 -14°C° 0 mm 5 mps 741 mmHg 73%

    Day after tomorrow, 22 February, Friday

    Time Temperature Precipitation Wind Pressure Humidity
    00:00 -14°C° 0 mm 5 mps 742 mmHg 74%
    01:00 -14°C° 0 mm 5 mps 742 mmHg 75%
    02:00 -15°C° 0 mm 5 mps 743 mmHg 76%
    03:00 -15°C° 0 mm 5 mps 743 mmHg 76%
    04:00 -15°C° 0 mm 5 mps 744 mmHg 77%
    05:00 -15°C° 0 mm 5 mps 744 mmHg 78%
    06:00 -15°C° 0 mm 5 mps 745 mmHg 76%
    07:00 -16°C° 0 mm 6 mps 745 mmHg 74%
    08:00 -16°C° 0 mm 6 mps 746 mmHg 72%
    09:00 -15°C° 0 mm 6 mps 746 mmHg 69%
    10:00 -14°C° 0 mm 7 mps 746 mmHg 66%
    11:00 -13°C° 0 mm 7 mps 746 mmHg 63%
    12:00 -13°C° 0 mm 7 mps 747 mmHg 62%
    13:00 -12°C° 0 mm 7 mps 747 mmHg 60%
    14:00 -12°C° 0 mm 7 mps 747 mmHg 58%
    15:00 -12°C° 0 mm 7 mps 747 mmHg 60%
    16:00 -12°C° 0 mm 6 mps 748 mmHg 62%
    17:00 -12°C° 0 mm 6 mps 748 mmHg 65%
    18:00 -14°C° 0 mm 6 mps 749 mmHg 68%
    19:00 -14°C° 0 mm 6 mps 749 mmHg 72%
    20:00 -14°C° 0 mm 5 mps 750 mmHg 75%
    21:00 -14°C° 0 mm 5 mps 750 mmHg 76%
    22:00 -15°C° 0 mm 5 mps 750 mmHg 78%
    23:00 -15°C° 0 mm 4 mps 751 mmHg 79%

    23 February, Saturday

    Time Temperature Precipitation Wind Pressure Humidity
    00:00 -15°C° 0 mm 4 mps 751 mmHg 81%
    01:00 -16°C° 0 mm 4 mps 751 mmHg 82%
    02:00 -16°C° 0 mm 4 mps 752 mmHg 83%
    03:00 -16°C° 0 mm 4 mps 752 mmHg 85%
    04:00 -16°C° 0 mm 3 mps 752 mmHg 86%
    05:00 -16°C° 0 mm 3 mps 752 mmHg 87%
    06:00 -16°C° 0 mm 3 mps 752 mmHg 87%
    07:00 -16°C° 0 mm 3 mps 752 mmHg 87%
    08:00 -16°C° 0 mm 3 mps 753 mmHg 87%
    09:00 -15°C° 0 mm 3 mps 753 mmHg 81%
    10:00 -14°C° 0 mm 3 mps 753 mmHg 75%
    11:00 -12°C° 0 mm 2 mps 753 mmHg 68%
    12:00 -10°C° 0 mm 2 mps 752 mmHg 66%
    13:00 -9°C° 0 mm 2 mps 752 mmHg 63%
    14:00 -8°C° 0 mm 2 mps 752 mmHg 60%
    15:00 -9°C° 0 mm 2 mps 751 mmHg 65%
    16:00 -8°C° 0 mm 1 mps 751 mmHg 70%
    17:00 -8°C° 0 mm 1 mps 751 mmHg 75%
    18:00 -8°C° 0 mm 1 mps 751 mmHg 76%
    19:00 -8°C° 0 mm 1 mps 751 mmHg 78%
    20:00 -8°C° 0 mm 1 mps 750 mmHg 79%
    21:00 -8°C° 0 mm 1 mps 750 mmHg 81%
    22:00 -8°C° 0 mm 1 mps 750 mmHg 82%
    23:00 -8°C° 0 mm 1 mps 750 mmHg 83%

    24 February, Sunday

    Time Temperature Precipitation Wind Pressure Humidity
    00:00 -8°C° 0 mm 1 mps 750 mmHg 85%
    01:00 -8°C° 0 mm 1 mps 751 mmHg 87%
    02:00 -8°C° 0 mm 1 mps 751 mmHg 89%
    03:00 -8°C° 0 mm 1 mps 751 mmHg 91%
    04:00 -8°C° 0 mm 1 mps 751 mmHg 92%
    05:00 -8°C° 0 mm 1 mps 751 mmHg 93%
    06:00 -8°C° 0 mm 1 mps 751 mmHg 93%
    07:00 -7°C° 0 mm 0 mps 752 mmHg 92%
    08:00 -7°C° 0 mm 0 mps 752 mmHg 92%
    09:00 -6°C° 0 mm 0 mps 752 mmHg 88%
    10:00 -5°C° 0 mm 0 mps 753 mmHg 85%
    11:00 -3°C° 0 mm 1 mps 753 mmHg 81%
    12:00 -2°C° 0 mm 1 mps 753 mmHg 80%
    13:00 -2°C° 0 mm 1 mps 753 mmHg 79%
    14:00 -1°C° 0 mm 1 mps 753 mmHg 78%
    15:00 -2°C° 0 mm 1 mps 753 mmHg 81%
    16:00 -2°C° 0 mm 1 mps 753 mmHg 84%
    17:00 -2°C° 0 mm 1 mps 753 mmHg 88%
    18:00 -2°C° 0 mm 1 mps 753 mmHg 90%
    19:00 -3°C° 0 mm 1 mps 753 mmHg 92%
    20:00 -3°C° 0 mm 1 mps 753 mmHg 94%
    21:00 -3°C° 0 mm 1 mps 752 mmHg 95%
    22:00 -4°C° 0 mm 1 mps 752 mmHg 96%
    23:00 -6°C° 0 mm 1 mps 752 mmHg 96%

    25 February, Monday

    Time Temperature Precipitation Wind Pressure Humidity
    00:00 -6°C° 0 mm 1 mps 752 mmHg 97%
    01:00 -6°C° 0 mm 1 mps 751 mmHg 97%
    02:00 -7°C° 0 mm 2 mps 751 mmHg 97%
    03:00 -6°C° 0 mm 2 mps 750 mmHg 97%
    04:00 -6°C° 0 mm 2 mps 750 mmHg 97%
    05:00 -6°C° 0 mm 2 mps 749 mmHg 97%
    06:00 -5°C° 0 mm 2 mps 749 mmHg 96%
    07:00 -5°C° 0 mm 2 mps 749 mmHg 96%
    08:00 -4°C° 0 mm 2 mps 748 mmHg 96%
    09:00 -3°C° 0.1 mm 2 mps 748 mmHg 95%
    10:00 -3°C° 0.1 mm 2 mps 748 mmHg 93%
    11:00 -2°C° 0.1 mm 2 mps 747 mmHg 92%
    12:00 -1°C° 0 mm 2 mps 747 mmHg 91%
    13:00 -1°C° 0 mm 3 mps 747 mmHg 89%
    14:00 0°C° 0 mm 3 mps 747 mmHg 87%
    15:00 -1°C° 0 mm 3 mps 747 mmHg 88%
    16:00 -2°C° 0 mm 2 mps 746 mmHg 89%
    17:00 -3°C° 0 mm 2 mps 746 mmHg 91%
    18:00 -3°C° 0 mm 2 mps 746 mmHg 90%
    19:00 -4°C° 0 mm 3 mps 746 mmHg 90%
    20:00 -4°C° 0 mm 3 mps 746 mmHg 89%
    21:00 -4°C° 0 mm 3 mps 745 mmHg 91%
    22:00 -4°C° 0 mm 3 mps 745 mmHg 92%
    23:00 -4°C° 0 mm 3 mps 745 mmHg 94%
    Show more